Location: Bottenau
(48.5138°N, 8.0462°E)
Time: 20:33:15
(UTC+00:00)

USA 281 - Pass Details

Date: 18 April 2021
Orbit: 1078 x 1081 km, 106.0° (Epoch: 14 May)

Event Time Altitude Azimuth Distance (km) Brightness Sun altitude
Exits shadow 23:33:13 75° 110° (ESE) 1,118 3.1 -30.3°
Maximum altitude 23:33:42 80° 61° (ENE) 1,100 3.1 -30.3°
Drops below altitude 10° 23:40:17 10° 336° (NNW) 2,930 6.2 -30.2°
Sets 23:42:48 0° 336° (NNW) 3,890 7.0 -30.2°
